<?xml version="1.0"?>
<gpx xmlns="http://www.topografix.com/GPX/1/1" xmlns:xsi="http://www.w3.org/2001/XMLSchema-instance" version="1.1" creator="GPX RubyGem 1.0.0 -- http://dougfales.github.io/gpx/" xsi:schemaLocation="http://www.topografix.com/GPX/1/1 http://www.topografix.com/GPX/1/1/gpx.xsd">
  <metadata>
    <name/>
    <time>2026-05-07T02:14:53+00:00</time>
    <bound minlat="90.0" minlon="180.0" maxlat="-90.0" maxlon="-180.0"/>
  </metadata>
  <trk>
    <name/>
    <trkseg>
      <trkpt lat="46.708758" lon="11.615829">
        <time>1970-01-01T00:00:00+00:00</time>
        <ele>1381.0</ele>
      </trkpt>
      <trkpt lat="46.708786" lon="11.615726">
        <time>1970-01-01T00:00:00+00:00</time>
        <ele>1382.0</ele>
      </trkpt>
      <trkpt lat="46.708997" lon="11.615921">
        <time>1970-01-01T00:00:00+00:00</time>
        <ele>1391.0</ele>
      </trkpt>
      <trkpt lat="46.709674" lon="11.615303">
        <time>1970-01-01T00:00:00+00:00</time>
        <ele>1408.0</ele>
      </trkpt>
      <trkpt lat="46.709711" lon="11.61526">
        <time>1970-01-01T00:00:00+00:00</time>
        <ele>1409.0</ele>
      </trkpt>
      <trkpt lat="46.709742" lon="11.615139">
        <time>1970-01-01T00:00:00+00:00</time>
        <ele>1410.0</ele>
      </trkpt>
      <trkpt lat="46.709897" lon="11.614873">
        <time>1970-01-01T00:00:00+00:00</time>
        <ele>1418.0</ele>
      </trkpt>
      <trkpt lat="46.710031" lon="11.61439">
        <time>1970-01-01T00:00:00+00:00</time>
        <ele>1427.0</ele>
      </trkpt>
      <trkpt lat="46.710064" lon="11.614191">
        <time>1970-01-01T00:00:00+00:00</time>
        <ele>1430.0</ele>
      </trkpt>
      <trkpt lat="46.710128" lon="11.614034">
        <time>1970-01-01T00:00:00+00:00</time>
        <ele>1433.0</ele>
      </trkpt>
      <trkpt lat="46.710171" lon="11.613793">
        <time>1970-01-01T00:00:00+00:00</time>
        <ele>1436.0</ele>
      </trkpt>
      <trkpt lat="46.710109" lon="11.613401">
        <time>1970-01-01T00:00:00+00:00</time>
        <ele>1438.0</ele>
      </trkpt>
      <trkpt lat="46.710129" lon="11.612933">
        <time>1970-01-01T00:00:00+00:00</time>
        <ele>1441.0</ele>
      </trkpt>
      <trkpt lat="46.710188" lon="11.612809">
        <time>1970-01-01T00:00:00+00:00</time>
        <ele>1444.0</ele>
      </trkpt>
      <trkpt lat="46.710223" lon="11.612634">
        <time>1970-01-01T00:00:00+00:00</time>
        <ele>1446.0</ele>
      </trkpt>
      <trkpt lat="46.710252" lon="11.612197">
        <time>1970-01-01T00:00:00+00:00</time>
        <ele>1453.0</ele>
      </trkpt>
      <trkpt lat="46.710245" lon="11.612083">
        <time>1970-01-01T00:00:00+00:00</time>
        <ele>1455.0</ele>
      </trkpt>
      <trkpt lat="46.710263" lon="11.611991">
        <time>1970-01-01T00:00:00+00:00</time>
        <ele>1458.0</ele>
      </trkpt>
      <trkpt lat="46.710278" lon="11.611688">
        <time>1970-01-01T00:00:00+00:00</time>
        <ele>1468.0</ele>
      </trkpt>
      <trkpt lat="46.710343" lon="11.611298">
        <time>1970-01-01T00:00:00+00:00</time>
        <ele>1482.0</ele>
      </trkpt>
      <trkpt lat="46.71033" lon="11.611092">
        <time>1970-01-01T00:00:00+00:00</time>
        <ele>1485.0</ele>
      </trkpt>
      <trkpt lat="46.710349" lon="11.610956">
        <time>1970-01-01T00:00:00+00:00</time>
        <ele>1490.0</ele>
      </trkpt>
      <trkpt lat="46.710342" lon="11.610797">
        <time>1970-01-01T00:00:00+00:00</time>
        <ele>1491.0</ele>
      </trkpt>
      <trkpt lat="46.710361" lon="11.610736">
        <time>1970-01-01T00:00:00+00:00</time>
        <ele>1493.0</ele>
      </trkpt>
      <trkpt lat="46.71035" lon="11.610585">
        <time>1970-01-01T00:00:00+00:00</time>
        <ele>1494.0</ele>
      </trkpt>
      <trkpt lat="46.710427" lon="11.610571">
        <time>1970-01-01T00:00:00+00:00</time>
        <ele>1498.0</ele>
      </trkpt>
      <trkpt lat="46.710965" lon="11.611326">
        <time>1970-01-01T00:00:00+00:00</time>
        <ele>1516.0</ele>
      </trkpt>
      <trkpt lat="46.71106" lon="11.611553">
        <time>1970-01-01T00:00:00+00:00</time>
        <ele>1515.0</ele>
      </trkpt>
      <trkpt lat="46.711163" lon="11.611728">
        <time>1970-01-01T00:00:00+00:00</time>
        <ele>1513.0</ele>
      </trkpt>
      <trkpt lat="46.711347" lon="11.611891">
        <time>1970-01-01T00:00:00+00:00</time>
        <ele>1515.0</ele>
      </trkpt>
      <trkpt lat="46.711458" lon="11.61206">
        <time>1970-01-01T00:00:00+00:00</time>
        <ele>1514.0</ele>
      </trkpt>
      <trkpt lat="46.711667" lon="11.612277">
        <time>1970-01-01T00:00:00+00:00</time>
        <ele>1514.0</ele>
      </trkpt>
      <trkpt lat="46.711814" lon="11.612372">
        <time>1970-01-01T00:00:00+00:00</time>
        <ele>1517.0</ele>
      </trkpt>
      <trkpt lat="46.71193" lon="11.612496">
        <time>1970-01-01T00:00:00+00:00</time>
        <ele>1521.0</ele>
      </trkpt>
      <trkpt lat="46.712024" lon="11.612512">
        <time>1970-01-01T00:00:00+00:00</time>
        <ele>1525.0</ele>
      </trkpt>
      <trkpt lat="46.712307" lon="11.612215">
        <time>1970-01-01T00:00:00+00:00</time>
        <ele>1543.0</ele>
      </trkpt>
      <trkpt lat="46.712294" lon="11.611964">
        <time>1970-01-01T00:00:00+00:00</time>
        <ele>1551.0</ele>
      </trkpt>
      <trkpt lat="46.712406" lon="11.611709">
        <time>1970-01-01T00:00:00+00:00</time>
        <ele>1560.0</ele>
      </trkpt>
      <trkpt lat="46.712766" lon="11.611763">
        <time>1970-01-01T00:00:00+00:00</time>
        <ele>1565.0</ele>
      </trkpt>
      <trkpt lat="46.712962" lon="11.611722">
        <time>1970-01-01T00:00:00+00:00</time>
        <ele>1570.0</ele>
      </trkpt>
      <trkpt lat="46.71313" lon="11.61178">
        <time>1970-01-01T00:00:00+00:00</time>
        <ele>1572.0</ele>
      </trkpt>
      <trkpt lat="46.713312" lon="11.61178">
        <time>1970-01-01T00:00:00+00:00</time>
        <ele>1575.0</ele>
      </trkpt>
      <trkpt lat="46.713373" lon="11.611737">
        <time>1970-01-01T00:00:00+00:00</time>
        <ele>1577.0</ele>
      </trkpt>
      <trkpt lat="46.713432" lon="11.61163">
        <time>1970-01-01T00:00:00+00:00</time>
        <ele>1582.0</ele>
      </trkpt>
      <trkpt lat="46.713346" lon="11.611398">
        <time>1970-01-01T00:00:00+00:00</time>
        <ele>1588.0</ele>
      </trkpt>
      <trkpt lat="46.713209" lon="11.611328">
        <time>1970-01-01T00:00:00+00:00</time>
        <ele>1586.0</ele>
      </trkpt>
      <trkpt lat="46.713211" lon="11.611259">
        <time>1970-01-01T00:00:00+00:00</time>
        <ele>1587.0</ele>
      </trkpt>
      <trkpt lat="46.713353" lon="11.611234">
        <time>1970-01-01T00:00:00+00:00</time>
        <ele>1590.0</ele>
      </trkpt>
      <trkpt lat="46.713481" lon="11.610975">
        <time>1970-01-01T00:00:00+00:00</time>
        <ele>1596.0</ele>
      </trkpt>
      <trkpt lat="46.713477" lon="11.610751">
        <time>1970-01-01T00:00:00+00:00</time>
        <ele>1600.0</ele>
      </trkpt>
      <trkpt lat="46.713674" lon="11.610629">
        <time>1970-01-01T00:00:00+00:00</time>
        <ele>1607.0</ele>
      </trkpt>
      <trkpt lat="46.713872" lon="11.61062">
        <time>1970-01-01T00:00:00+00:00</time>
        <ele>1613.0</ele>
      </trkpt>
      <trkpt lat="46.714063" lon="11.610679">
        <time>1970-01-01T00:00:00+00:00</time>
        <ele>1617.0</ele>
      </trkpt>
      <trkpt lat="46.714188" lon="11.610827">
        <time>1970-01-01T00:00:00+00:00</time>
        <ele>1619.0</ele>
      </trkpt>
      <trkpt lat="46.714578" lon="11.610946">
        <time>1970-01-01T00:00:00+00:00</time>
        <ele>1631.0</ele>
      </trkpt>
      <trkpt lat="46.714894" lon="11.611107">
        <time>1970-01-01T00:00:00+00:00</time>
        <ele>1641.0</ele>
      </trkpt>
      <trkpt lat="46.715113" lon="11.611168">
        <time>1970-01-01T00:00:00+00:00</time>
        <ele>1646.0</ele>
      </trkpt>
      <trkpt lat="46.715279" lon="11.611048">
        <time>1970-01-01T00:00:00+00:00</time>
        <ele>1651.0</ele>
      </trkpt>
      <trkpt lat="46.715281" lon="11.610829">
        <time>1970-01-01T00:00:00+00:00</time>
        <ele>1657.0</ele>
      </trkpt>
      <trkpt lat="46.715107" lon="11.610301">
        <time>1970-01-01T00:00:00+00:00</time>
        <ele>1663.0</ele>
      </trkpt>
      <trkpt lat="46.715186" lon="11.61003">
        <time>1970-01-01T00:00:00+00:00</time>
        <ele>1672.0</ele>
      </trkpt>
      <trkpt lat="46.715591" lon="11.609723">
        <time>1970-01-01T00:00:00+00:00</time>
        <ele>1688.0</ele>
      </trkpt>
      <trkpt lat="46.715896" lon="11.609646">
        <time>1970-01-01T00:00:00+00:00</time>
        <ele>1695.0</ele>
      </trkpt>
      <trkpt lat="46.716165" lon="11.609577">
        <time>1970-01-01T00:00:00+00:00</time>
        <ele>1704.0</ele>
      </trkpt>
      <trkpt lat="46.716301" lon="11.609675">
        <time>1970-01-01T00:00:00+00:00</time>
        <ele>1707.0</ele>
      </trkpt>
      <trkpt lat="46.716338" lon="11.609741">
        <time>1970-01-01T00:00:00+00:00</time>
        <ele>1707.0</ele>
      </trkpt>
      <trkpt lat="46.716476" lon="11.609508">
        <time>1970-01-01T00:00:00+00:00</time>
        <ele>1714.0</ele>
      </trkpt>
      <trkpt lat="46.71651" lon="11.609382">
        <time>1970-01-01T00:00:00+00:00</time>
        <ele>1716.0</ele>
      </trkpt>
      <trkpt lat="46.71665" lon="11.609033">
        <time>1970-01-01T00:00:00+00:00</time>
        <ele>1725.0</ele>
      </trkpt>
      <trkpt lat="46.716884" lon="11.608674">
        <time>1970-01-01T00:00:00+00:00</time>
        <ele>1739.0</ele>
      </trkpt>
      <trkpt lat="46.717058" lon="11.608495">
        <time>1970-01-01T00:00:00+00:00</time>
        <ele>1751.0</ele>
      </trkpt>
      <trkpt lat="46.717191" lon="11.608306">
        <time>1970-01-01T00:00:00+00:00</time>
        <ele>1760.0</ele>
      </trkpt>
      <trkpt lat="46.717229" lon="11.608024">
        <time>1970-01-01T00:00:00+00:00</time>
        <ele>1766.0</ele>
      </trkpt>
      <trkpt lat="46.717194" lon="11.607488">
        <time>1970-01-01T00:00:00+00:00</time>
        <ele>1775.0</ele>
      </trkpt>
      <trkpt lat="46.717118" lon="11.607252">
        <time>1970-01-01T00:00:00+00:00</time>
        <ele>1779.0</ele>
      </trkpt>
      <trkpt lat="46.716948" lon="11.607116">
        <time>1970-01-01T00:00:00+00:00</time>
        <ele>1782.0</ele>
      </trkpt>
      <trkpt lat="46.716864" lon="11.60682">
        <time>1970-01-01T00:00:00+00:00</time>
        <ele>1788.0</ele>
      </trkpt>
      <trkpt lat="46.716771" lon="11.606331">
        <time>1970-01-01T00:00:00+00:00</time>
        <ele>1794.0</ele>
      </trkpt>
      <trkpt lat="46.716746" lon="11.606052">
        <time>1970-01-01T00:00:00+00:00</time>
        <ele>1797.0</ele>
      </trkpt>
      <trkpt lat="46.716597" lon="11.605857">
        <time>1970-01-01T00:00:00+00:00</time>
        <ele>1802.0</ele>
      </trkpt>
      <trkpt lat="46.716443" lon="11.605704">
        <time>1970-01-01T00:00:00+00:00</time>
        <ele>1806.0</ele>
      </trkpt>
      <trkpt lat="46.716391" lon="11.605505">
        <time>1970-01-01T00:00:00+00:00</time>
        <ele>1809.0</ele>
      </trkpt>
      <trkpt lat="46.716094" lon="11.605029">
        <time>1970-01-01T00:00:00+00:00</time>
        <ele>1819.0</ele>
      </trkpt>
      <trkpt lat="46.716069" lon="11.604763">
        <time>1970-01-01T00:00:00+00:00</time>
        <ele>1824.0</ele>
      </trkpt>
      <trkpt lat="46.715961" lon="11.604544">
        <time>1970-01-01T00:00:00+00:00</time>
        <ele>1828.0</ele>
      </trkpt>
      <trkpt lat="46.715422" lon="11.604264">
        <time>1970-01-01T00:00:00+00:00</time>
        <ele>1831.0</ele>
      </trkpt>
      <trkpt lat="46.715279" lon="11.604151">
        <time>1970-01-01T00:00:00+00:00</time>
        <ele>1833.0</ele>
      </trkpt>
      <trkpt lat="46.715208" lon="11.604013">
        <time>1970-01-01T00:00:00+00:00</time>
        <ele>1837.0</ele>
      </trkpt>
      <trkpt lat="46.715188" lon="11.603914">
        <time>1970-01-01T00:00:00+00:00</time>
        <ele>1841.0</ele>
      </trkpt>
      <trkpt lat="46.715244" lon="11.603669">
        <time>1970-01-01T00:00:00+00:00</time>
        <ele>1852.0</ele>
      </trkpt>
      <trkpt lat="46.7152" lon="11.603539">
        <time>1970-01-01T00:00:00+00:00</time>
        <ele>1854.0</ele>
      </trkpt>
      <trkpt lat="46.715204" lon="11.603362">
        <time>1970-01-01T00:00:00+00:00</time>
        <ele>1857.0</ele>
      </trkpt>
      <trkpt lat="46.715185" lon="11.603243">
        <time>1970-01-01T00:00:00+00:00</time>
        <ele>1859.0</ele>
      </trkpt>
      <trkpt lat="46.715086" lon="11.603057">
        <time>1970-01-01T00:00:00+00:00</time>
        <ele>1862.0</ele>
      </trkpt>
      <trkpt lat="46.71509" lon="11.602928">
        <time>1970-01-01T00:00:00+00:00</time>
        <ele>1865.0</ele>
      </trkpt>
      <trkpt lat="46.715049" lon="11.602753">
        <time>1970-01-01T00:00:00+00:00</time>
        <ele>1867.0</ele>
      </trkpt>
      <trkpt lat="46.714862" lon="11.602432">
        <time>1970-01-01T00:00:00+00:00</time>
        <ele>1876.0</ele>
      </trkpt>
      <trkpt lat="46.714895" lon="11.602302">
        <time>1970-01-01T00:00:00+00:00</time>
        <ele>1882.0</ele>
      </trkpt>
      <trkpt lat="46.715001" lon="11.602246">
        <time>1970-01-01T00:00:00+00:00</time>
        <ele>1881.0</ele>
      </trkpt>
      <trkpt lat="46.71502" lon="11.602215">
        <time>1970-01-01T00:00:00+00:00</time>
        <ele>1882.0</ele>
      </trkpt>
      <trkpt lat="46.714991" lon="11.60217">
        <time>1970-01-01T00:00:00+00:00</time>
        <ele>1884.0</ele>
      </trkpt>
      <trkpt lat="46.714899" lon="11.602153">
        <time>1970-01-01T00:00:00+00:00</time>
        <ele>1888.0</ele>
      </trkpt>
      <trkpt lat="46.714875" lon="11.60208">
        <time>1970-01-01T00:00:00+00:00</time>
        <ele>1891.0</ele>
      </trkpt>
      <trkpt lat="46.714877" lon="11.601944">
        <time>1970-01-01T00:00:00+00:00</time>
        <ele>1895.0</ele>
      </trkpt>
      <trkpt lat="46.714839" lon="11.601685">
        <time>1970-01-01T00:00:00+00:00</time>
        <ele>1903.0</ele>
      </trkpt>
      <trkpt lat="46.714738" lon="11.601485">
        <time>1970-01-01T00:00:00+00:00</time>
        <ele>1913.0</ele>
      </trkpt>
      <trkpt lat="46.714607" lon="11.601361">
        <time>1970-01-01T00:00:00+00:00</time>
        <ele>1921.0</ele>
      </trkpt>
      <trkpt lat="46.714435" lon="11.601276">
        <time>1970-01-01T00:00:00+00:00</time>
        <ele>1925.0</ele>
      </trkpt>
      <trkpt lat="46.714342" lon="11.601009">
        <time>1970-01-01T00:00:00+00:00</time>
        <ele>1929.0</ele>
      </trkpt>
      <trkpt lat="46.714331" lon="11.600738">
        <time>1970-01-01T00:00:00+00:00</time>
        <ele>1936.0</ele>
      </trkpt>
      <trkpt lat="46.71436" lon="11.600572">
        <time>1970-01-01T00:00:00+00:00</time>
        <ele>1943.0</ele>
      </trkpt>
      <trkpt lat="46.714344" lon="11.600383">
        <time>1970-01-01T00:00:00+00:00</time>
        <ele>1948.0</ele>
      </trkpt>
      <trkpt lat="46.714377" lon="11.600344">
        <time>1970-01-01T00:00:00+00:00</time>
        <ele>1950.0</ele>
      </trkpt>
      <trkpt lat="46.714518" lon="11.600259">
        <time>1970-01-01T00:00:00+00:00</time>
        <ele>1959.0</ele>
      </trkpt>
      <trkpt lat="46.71453" lon="11.600175">
        <time>1970-01-01T00:00:00+00:00</time>
        <ele>1962.0</ele>
      </trkpt>
      <trkpt lat="46.714491" lon="11.59991">
        <time>1970-01-01T00:00:00+00:00</time>
        <ele>1967.0</ele>
      </trkpt>
      <trkpt lat="46.714506" lon="11.599831">
        <time>1970-01-01T00:00:00+00:00</time>
        <ele>1970.0</ele>
      </trkpt>
      <trkpt lat="46.714671" lon="11.599693">
        <time>1970-01-01T00:00:00+00:00</time>
        <ele>1977.0</ele>
      </trkpt>
      <trkpt lat="46.714759" lon="11.599287">
        <time>1970-01-01T00:00:00+00:00</time>
        <ele>1991.0</ele>
      </trkpt>
      <trkpt lat="46.71462" lon="11.599008">
        <time>1970-01-01T00:00:00+00:00</time>
        <ele>2002.0</ele>
      </trkpt>
      <trkpt lat="46.71457" lon="11.598374">
        <time>1970-01-01T00:00:00+00:00</time>
        <ele>2027.0</ele>
      </trkpt>
      <trkpt lat="46.714628" lon="11.598247">
        <time>1970-01-01T00:00:00+00:00</time>
        <ele>2034.0</ele>
      </trkpt>
      <trkpt lat="46.71457" lon="11.597901">
        <time>1970-01-01T00:00:00+00:00</time>
        <ele>2042.0</ele>
      </trkpt>
      <trkpt lat="46.714781" lon="11.597785">
        <time>1970-01-01T00:00:00+00:00</time>
        <ele>2053.0</ele>
      </trkpt>
      <trkpt lat="46.714785" lon="11.597715">
        <time>1970-01-01T00:00:00+00:00</time>
        <ele>2056.0</ele>
      </trkpt>
      <trkpt lat="46.714588" lon="11.597317">
        <time>1970-01-01T00:00:00+00:00</time>
        <ele>2064.0</ele>
      </trkpt>
      <trkpt lat="46.714593" lon="11.597202">
        <time>1970-01-01T00:00:00+00:00</time>
        <ele>2068.0</ele>
      </trkpt>
      <trkpt lat="46.71458" lon="11.597047">
        <time>1970-01-01T00:00:00+00:00</time>
        <ele>2075.0</ele>
      </trkpt>
      <trkpt lat="46.714485" lon="11.596782">
        <time>1970-01-01T00:00:00+00:00</time>
        <ele>2081.0</ele>
      </trkpt>
      <trkpt lat="46.714504" lon="11.596737">
        <time>1970-01-01T00:00:00+00:00</time>
        <ele>2084.0</ele>
      </trkpt>
      <trkpt lat="46.714742" lon="11.596694">
        <time>1970-01-01T00:00:00+00:00</time>
        <ele>2097.0</ele>
      </trkpt>
      <trkpt lat="46.7148" lon="11.596652">
        <time>1970-01-01T00:00:00+00:00</time>
        <ele>2100.0</ele>
      </trkpt>
      <trkpt lat="46.714933" lon="11.596613">
        <time>1970-01-01T00:00:00+00:00</time>
        <ele>2103.0</ele>
      </trkpt>
      <trkpt lat="46.715009" lon="11.596528">
        <time>1970-01-01T00:00:00+00:00</time>
        <ele>2105.0</ele>
      </trkpt>
      <trkpt lat="46.714989" lon="11.596001">
        <time>1970-01-01T00:00:00+00:00</time>
        <ele>2120.0</ele>
      </trkpt>
      <trkpt lat="46.714951" lon="11.595835">
        <time>1970-01-01T00:00:00+00:00</time>
        <ele>2126.0</ele>
      </trkpt>
      <trkpt lat="46.714953" lon="11.59575">
        <time>1970-01-01T00:00:00+00:00</time>
        <ele>2129.0</ele>
      </trkpt>
      <trkpt lat="46.714982" lon="11.595694">
        <time>1970-01-01T00:00:00+00:00</time>
        <ele>2131.0</ele>
      </trkpt>
      <trkpt lat="46.715036" lon="11.595683">
        <time>1970-01-01T00:00:00+00:00</time>
        <ele>2132.0</ele>
      </trkpt>
      <trkpt lat="46.715086" lon="11.595398">
        <time>1970-01-01T00:00:00+00:00</time>
        <ele>2142.0</ele>
      </trkpt>
      <trkpt lat="46.715055" lon="11.595108">
        <time>1970-01-01T00:00:00+00:00</time>
        <ele>2149.0</ele>
      </trkpt>
      <trkpt lat="46.714928" lon="11.59462">
        <time>1970-01-01T00:00:00+00:00</time>
        <ele>2155.0</ele>
      </trkpt>
      <trkpt lat="46.714804" lon="11.593924">
        <time>1970-01-01T00:00:00+00:00</time>
        <ele>2165.0</ele>
      </trkpt>
      <trkpt lat="46.714742" lon="11.593758">
        <time>1970-01-01T00:00:00+00:00</time>
        <ele>2170.0</ele>
      </trkpt>
      <trkpt lat="46.714591" lon="11.593814">
        <time>1970-01-01T00:00:00+00:00</time>
        <ele>2167.0</ele>
      </trkpt>
      <trkpt lat="46.714547" lon="11.593764">
        <time>1970-01-01T00:00:00+00:00</time>
        <ele>2169.0</ele>
      </trkpt>
      <trkpt lat="46.714532" lon="11.593705">
        <time>1970-01-01T00:00:00+00:00</time>
        <ele>2172.0</ele>
      </trkpt>
      <trkpt lat="46.714456" lon="11.593248">
        <time>1970-01-01T00:00:00+00:00</time>
        <ele>2186.0</ele>
      </trkpt>
      <trkpt lat="46.714392" lon="11.592724">
        <time>1970-01-01T00:00:00+00:00</time>
        <ele>2194.0</ele>
      </trkpt>
      <trkpt lat="46.714381" lon="11.592408">
        <time>1970-01-01T00:00:00+00:00</time>
        <ele>2203.0</ele>
      </trkpt>
      <trkpt lat="46.714389" lon="11.592239">
        <time>1970-01-01T00:00:00+00:00</time>
        <ele>2209.0</ele>
      </trkpt>
      <trkpt lat="46.714319" lon="11.592142">
        <time>1970-01-01T00:00:00+00:00</time>
        <ele>2214.0</ele>
      </trkpt>
      <trkpt lat="46.714215" lon="11.591777">
        <time>1970-01-01T00:00:00+00:00</time>
        <ele>2228.0</ele>
      </trkpt>
      <trkpt lat="46.714197" lon="11.591614">
        <time>1970-01-01T00:00:00+00:00</time>
        <ele>2233.0</ele>
      </trkpt>
      <trkpt lat="46.714099" lon="11.591456">
        <time>1970-01-01T00:00:00+00:00</time>
        <ele>2235.0</ele>
      </trkpt>
      <trkpt lat="46.714041" lon="11.59127">
        <time>1970-01-01T00:00:00+00:00</time>
        <ele>2237.0</ele>
      </trkpt>
      <trkpt lat="46.714053" lon="11.590905">
        <time>1970-01-01T00:00:00+00:00</time>
        <ele>2238.0</ele>
      </trkpt>
      <trkpt lat="46.714053" lon="11.590905">
        <time>1970-01-01T00:00:00+00:00</time>
        <ele>2238.0</ele>
      </trkpt>
      <trkpt lat="46.714041" lon="11.59127">
        <time>1970-01-01T00:00:00+00:00</time>
        <ele>2237.0</ele>
      </trkpt>
      <trkpt lat="46.714099" lon="11.591456">
        <time>1970-01-01T00:00:00+00:00</time>
        <ele>2235.0</ele>
      </trkpt>
      <trkpt lat="46.714197" lon="11.591614">
        <time>1970-01-01T00:00:00+00:00</time>
        <ele>2233.0</ele>
      </trkpt>
      <trkpt lat="46.714215" lon="11.591777">
        <time>1970-01-01T00:00:00+00:00</time>
        <ele>2228.0</ele>
      </trkpt>
      <trkpt lat="46.714319" lon="11.592142">
        <time>1970-01-01T00:00:00+00:00</time>
        <ele>2214.0</ele>
      </trkpt>
      <trkpt lat="46.714389" lon="11.592239">
        <time>1970-01-01T00:00:00+00:00</time>
        <ele>2209.0</ele>
      </trkpt>
      <trkpt lat="46.714381" lon="11.592408">
        <time>1970-01-01T00:00:00+00:00</time>
        <ele>2203.0</ele>
      </trkpt>
      <trkpt lat="46.714392" lon="11.592724">
        <time>1970-01-01T00:00:00+00:00</time>
        <ele>2194.0</ele>
      </trkpt>
      <trkpt lat="46.714456" lon="11.593248">
        <time>1970-01-01T00:00:00+00:00</time>
        <ele>2186.0</ele>
      </trkpt>
      <trkpt lat="46.714532" lon="11.593705">
        <time>1970-01-01T00:00:00+00:00</time>
        <ele>2172.0</ele>
      </trkpt>
      <trkpt lat="46.714547" lon="11.593764">
        <time>1970-01-01T00:00:00+00:00</time>
        <ele>2169.0</ele>
      </trkpt>
      <trkpt lat="46.714591" lon="11.593814">
        <time>1970-01-01T00:00:00+00:00</time>
        <ele>2167.0</ele>
      </trkpt>
      <trkpt lat="46.714742" lon="11.593758">
        <time>1970-01-01T00:00:00+00:00</time>
        <ele>2170.0</ele>
      </trkpt>
      <trkpt lat="46.714804" lon="11.593924">
        <time>1970-01-01T00:00:00+00:00</time>
        <ele>2165.0</ele>
      </trkpt>
      <trkpt lat="46.714928" lon="11.59462">
        <time>1970-01-01T00:00:00+00:00</time>
        <ele>2155.0</ele>
      </trkpt>
      <trkpt lat="46.715055" lon="11.595108">
        <time>1970-01-01T00:00:00+00:00</time>
        <ele>2149.0</ele>
      </trkpt>
      <trkpt lat="46.715086" lon="11.595398">
        <time>1970-01-01T00:00:00+00:00</time>
        <ele>2142.0</ele>
      </trkpt>
      <trkpt lat="46.715036" lon="11.595683">
        <time>1970-01-01T00:00:00+00:00</time>
        <ele>2132.0</ele>
      </trkpt>
      <trkpt lat="46.714982" lon="11.595694">
        <time>1970-01-01T00:00:00+00:00</time>
        <ele>2131.0</ele>
      </trkpt>
      <trkpt lat="46.714953" lon="11.59575">
        <time>1970-01-01T00:00:00+00:00</time>
        <ele>2129.0</ele>
      </trkpt>
      <trkpt lat="46.714951" lon="11.595835">
        <time>1970-01-01T00:00:00+00:00</time>
        <ele>2126.0</ele>
      </trkpt>
      <trkpt lat="46.714989" lon="11.596001">
        <time>1970-01-01T00:00:00+00:00</time>
        <ele>2120.0</ele>
      </trkpt>
      <trkpt lat="46.715009" lon="11.596528">
        <time>1970-01-01T00:00:00+00:00</time>
        <ele>2105.0</ele>
      </trkpt>
      <trkpt lat="46.714933" lon="11.596613">
        <time>1970-01-01T00:00:00+00:00</time>
        <ele>2103.0</ele>
      </trkpt>
      <trkpt lat="46.7148" lon="11.596652">
        <time>1970-01-01T00:00:00+00:00</time>
        <ele>2100.0</ele>
      </trkpt>
      <trkpt lat="46.714742" lon="11.596694">
        <time>1970-01-01T00:00:00+00:00</time>
        <ele>2097.0</ele>
      </trkpt>
      <trkpt lat="46.714504" lon="11.596737">
        <time>1970-01-01T00:00:00+00:00</time>
        <ele>2084.0</ele>
      </trkpt>
      <trkpt lat="46.714485" lon="11.596782">
        <time>1970-01-01T00:00:00+00:00</time>
        <ele>2081.0</ele>
      </trkpt>
      <trkpt lat="46.71458" lon="11.597047">
        <time>1970-01-01T00:00:00+00:00</time>
        <ele>2075.0</ele>
      </trkpt>
      <trkpt lat="46.714593" lon="11.597202">
        <time>1970-01-01T00:00:00+00:00</time>
        <ele>2068.0</ele>
      </trkpt>
      <trkpt lat="46.714588" lon="11.597317">
        <time>1970-01-01T00:00:00+00:00</time>
        <ele>2064.0</ele>
      </trkpt>
      <trkpt lat="46.714785" lon="11.597715">
        <time>1970-01-01T00:00:00+00:00</time>
        <ele>2056.0</ele>
      </trkpt>
      <trkpt lat="46.714781" lon="11.597785">
        <time>1970-01-01T00:00:00+00:00</time>
        <ele>2053.0</ele>
      </trkpt>
      <trkpt lat="46.71457" lon="11.597901">
        <time>1970-01-01T00:00:00+00:00</time>
        <ele>2042.0</ele>
      </trkpt>
      <trkpt lat="46.714628" lon="11.598247">
        <time>1970-01-01T00:00:00+00:00</time>
        <ele>2034.0</ele>
      </trkpt>
      <trkpt lat="46.71457" lon="11.598374">
        <time>1970-01-01T00:00:00+00:00</time>
        <ele>2027.0</ele>
      </trkpt>
      <trkpt lat="46.71462" lon="11.599008">
        <time>1970-01-01T00:00:00+00:00</time>
        <ele>2002.0</ele>
      </trkpt>
      <trkpt lat="46.714759" lon="11.599287">
        <time>1970-01-01T00:00:00+00:00</time>
        <ele>1991.0</ele>
      </trkpt>
      <trkpt lat="46.714671" lon="11.599693">
        <time>1970-01-01T00:00:00+00:00</time>
        <ele>1977.0</ele>
      </trkpt>
      <trkpt lat="46.714506" lon="11.599831">
        <time>1970-01-01T00:00:00+00:00</time>
        <ele>1970.0</ele>
      </trkpt>
      <trkpt lat="46.714491" lon="11.59991">
        <time>1970-01-01T00:00:00+00:00</time>
        <ele>1967.0</ele>
      </trkpt>
      <trkpt lat="46.71453" lon="11.600175">
        <time>1970-01-01T00:00:00+00:00</time>
        <ele>1962.0</ele>
      </trkpt>
      <trkpt lat="46.714518" lon="11.600259">
        <time>1970-01-01T00:00:00+00:00</time>
        <ele>1959.0</ele>
      </trkpt>
      <trkpt lat="46.714377" lon="11.600344">
        <time>1970-01-01T00:00:00+00:00</time>
        <ele>1950.0</ele>
      </trkpt>
      <trkpt lat="46.714344" lon="11.600383">
        <time>1970-01-01T00:00:00+00:00</time>
        <ele>1948.0</ele>
      </trkpt>
      <trkpt lat="46.71436" lon="11.600572">
        <time>1970-01-01T00:00:00+00:00</time>
        <ele>1943.0</ele>
      </trkpt>
      <trkpt lat="46.714331" lon="11.600738">
        <time>1970-01-01T00:00:00+00:00</time>
        <ele>1936.0</ele>
      </trkpt>
      <trkpt lat="46.714342" lon="11.601009">
        <time>1970-01-01T00:00:00+00:00</time>
        <ele>1929.0</ele>
      </trkpt>
      <trkpt lat="46.714435" lon="11.601276">
        <time>1970-01-01T00:00:00+00:00</time>
        <ele>1925.0</ele>
      </trkpt>
      <trkpt lat="46.714607" lon="11.601361">
        <time>1970-01-01T00:00:00+00:00</time>
        <ele>1921.0</ele>
      </trkpt>
      <trkpt lat="46.714738" lon="11.601485">
        <time>1970-01-01T00:00:00+00:00</time>
        <ele>1913.0</ele>
      </trkpt>
      <trkpt lat="46.714839" lon="11.601685">
        <time>1970-01-01T00:00:00+00:00</time>
        <ele>1903.0</ele>
      </trkpt>
      <trkpt lat="46.714877" lon="11.601944">
        <time>1970-01-01T00:00:00+00:00</time>
        <ele>1895.0</ele>
      </trkpt>
      <trkpt lat="46.714875" lon="11.60208">
        <time>1970-01-01T00:00:00+00:00</time>
        <ele>1891.0</ele>
      </trkpt>
      <trkpt lat="46.714899" lon="11.602153">
        <time>1970-01-01T00:00:00+00:00</time>
        <ele>1888.0</ele>
      </trkpt>
      <trkpt lat="46.714991" lon="11.60217">
        <time>1970-01-01T00:00:00+00:00</time>
        <ele>1884.0</ele>
      </trkpt>
      <trkpt lat="46.71502" lon="11.602215">
        <time>1970-01-01T00:00:00+00:00</time>
        <ele>1882.0</ele>
      </trkpt>
      <trkpt lat="46.715001" lon="11.602246">
        <time>1970-01-01T00:00:00+00:00</time>
        <ele>1881.0</ele>
      </trkpt>
      <trkpt lat="46.714895" lon="11.602302">
        <time>1970-01-01T00:00:00+00:00</time>
        <ele>1882.0</ele>
      </trkpt>
      <trkpt lat="46.714862" lon="11.602432">
        <time>1970-01-01T00:00:00+00:00</time>
        <ele>1876.0</ele>
      </trkpt>
      <trkpt lat="46.715049" lon="11.602753">
        <time>1970-01-01T00:00:00+00:00</time>
        <ele>1867.0</ele>
      </trkpt>
      <trkpt lat="46.71509" lon="11.602928">
        <time>1970-01-01T00:00:00+00:00</time>
        <ele>1865.0</ele>
      </trkpt>
      <trkpt lat="46.715086" lon="11.603057">
        <time>1970-01-01T00:00:00+00:00</time>
        <ele>1862.0</ele>
      </trkpt>
      <trkpt lat="46.715185" lon="11.603243">
        <time>1970-01-01T00:00:00+00:00</time>
        <ele>1859.0</ele>
      </trkpt>
      <trkpt lat="46.715204" lon="11.603362">
        <time>1970-01-01T00:00:00+00:00</time>
        <ele>1857.0</ele>
      </trkpt>
      <trkpt lat="46.7152" lon="11.603539">
        <time>1970-01-01T00:00:00+00:00</time>
        <ele>1854.0</ele>
      </trkpt>
      <trkpt lat="46.715244" lon="11.603669">
        <time>1970-01-01T00:00:00+00:00</time>
        <ele>1852.0</ele>
      </trkpt>
      <trkpt lat="46.715188" lon="11.603914">
        <time>1970-01-01T00:00:00+00:00</time>
        <ele>1841.0</ele>
      </trkpt>
      <trkpt lat="46.715208" lon="11.604013">
        <time>1970-01-01T00:00:00+00:00</time>
        <ele>1837.0</ele>
      </trkpt>
      <trkpt lat="46.715279" lon="11.604151">
        <time>1970-01-01T00:00:00+00:00</time>
        <ele>1833.0</ele>
      </trkpt>
      <trkpt lat="46.715422" lon="11.604264">
        <time>1970-01-01T00:00:00+00:00</time>
        <ele>1831.0</ele>
      </trkpt>
      <trkpt lat="46.715961" lon="11.604544">
        <time>1970-01-01T00:00:00+00:00</time>
        <ele>1828.0</ele>
      </trkpt>
      <trkpt lat="46.716069" lon="11.604763">
        <time>1970-01-01T00:00:00+00:00</time>
        <ele>1824.0</ele>
      </trkpt>
      <trkpt lat="46.716094" lon="11.605029">
        <time>1970-01-01T00:00:00+00:00</time>
        <ele>1819.0</ele>
      </trkpt>
      <trkpt lat="46.716391" lon="11.605505">
        <time>1970-01-01T00:00:00+00:00</time>
        <ele>1809.0</ele>
      </trkpt>
      <trkpt lat="46.716443" lon="11.605704">
        <time>1970-01-01T00:00:00+00:00</time>
        <ele>1806.0</ele>
      </trkpt>
      <trkpt lat="46.716597" lon="11.605857">
        <time>1970-01-01T00:00:00+00:00</time>
        <ele>1802.0</ele>
      </trkpt>
      <trkpt lat="46.716746" lon="11.606052">
        <time>1970-01-01T00:00:00+00:00</time>
        <ele>1797.0</ele>
      </trkpt>
      <trkpt lat="46.716771" lon="11.606331">
        <time>1970-01-01T00:00:00+00:00</time>
        <ele>1794.0</ele>
      </trkpt>
      <trkpt lat="46.716864" lon="11.60682">
        <time>1970-01-01T00:00:00+00:00</time>
        <ele>1788.0</ele>
      </trkpt>
      <trkpt lat="46.716948" lon="11.607116">
        <time>1970-01-01T00:00:00+00:00</time>
        <ele>1782.0</ele>
      </trkpt>
      <trkpt lat="46.717118" lon="11.607252">
        <time>1970-01-01T00:00:00+00:00</time>
        <ele>1779.0</ele>
      </trkpt>
      <trkpt lat="46.717194" lon="11.607488">
        <time>1970-01-01T00:00:00+00:00</time>
        <ele>1775.0</ele>
      </trkpt>
      <trkpt lat="46.717229" lon="11.608024">
        <time>1970-01-01T00:00:00+00:00</time>
        <ele>1766.0</ele>
      </trkpt>
      <trkpt lat="46.717191" lon="11.608306">
        <time>1970-01-01T00:00:00+00:00</time>
        <ele>1760.0</ele>
      </trkpt>
      <trkpt lat="46.717058" lon="11.608495">
        <time>1970-01-01T00:00:00+00:00</time>
        <ele>1751.0</ele>
      </trkpt>
      <trkpt lat="46.716884" lon="11.608674">
        <time>1970-01-01T00:00:00+00:00</time>
        <ele>1739.0</ele>
      </trkpt>
      <trkpt lat="46.71665" lon="11.609033">
        <time>1970-01-01T00:00:00+00:00</time>
        <ele>1725.0</ele>
      </trkpt>
      <trkpt lat="46.71651" lon="11.609382">
        <time>1970-01-01T00:00:00+00:00</time>
        <ele>1716.0</ele>
      </trkpt>
      <trkpt lat="46.716476" lon="11.609508">
        <time>1970-01-01T00:00:00+00:00</time>
        <ele>1714.0</ele>
      </trkpt>
      <trkpt lat="46.716338" lon="11.609741">
        <time>1970-01-01T00:00:00+00:00</time>
        <ele>1707.0</ele>
      </trkpt>
      <trkpt lat="46.716301" lon="11.609675">
        <time>1970-01-01T00:00:00+00:00</time>
        <ele>1707.0</ele>
      </trkpt>
      <trkpt lat="46.716165" lon="11.609577">
        <time>1970-01-01T00:00:00+00:00</time>
        <ele>1704.0</ele>
      </trkpt>
      <trkpt lat="46.715896" lon="11.609646">
        <time>1970-01-01T00:00:00+00:00</time>
        <ele>1695.0</ele>
      </trkpt>
      <trkpt lat="46.715591" lon="11.609723">
        <time>1970-01-01T00:00:00+00:00</time>
        <ele>1688.0</ele>
      </trkpt>
      <trkpt lat="46.715186" lon="11.61003">
        <time>1970-01-01T00:00:00+00:00</time>
        <ele>1672.0</ele>
      </trkpt>
      <trkpt lat="46.715107" lon="11.610301">
        <time>1970-01-01T00:00:00+00:00</time>
        <ele>1663.0</ele>
      </trkpt>
      <trkpt lat="46.715281" lon="11.610829">
        <time>1970-01-01T00:00:00+00:00</time>
        <ele>1657.0</ele>
      </trkpt>
      <trkpt lat="46.715279" lon="11.611048">
        <time>1970-01-01T00:00:00+00:00</time>
        <ele>1651.0</ele>
      </trkpt>
      <trkpt lat="46.715113" lon="11.611168">
        <time>1970-01-01T00:00:00+00:00</time>
        <ele>1646.0</ele>
      </trkpt>
      <trkpt lat="46.714894" lon="11.611107">
        <time>1970-01-01T00:00:00+00:00</time>
        <ele>1641.0</ele>
      </trkpt>
      <trkpt lat="46.714578" lon="11.610946">
        <time>1970-01-01T00:00:00+00:00</time>
        <ele>1631.0</ele>
      </trkpt>
      <trkpt lat="46.714188" lon="11.610827">
        <time>1970-01-01T00:00:00+00:00</time>
        <ele>1619.0</ele>
      </trkpt>
      <trkpt lat="46.714063" lon="11.610679">
        <time>1970-01-01T00:00:00+00:00</time>
        <ele>1617.0</ele>
      </trkpt>
      <trkpt lat="46.713872" lon="11.61062">
        <time>1970-01-01T00:00:00+00:00</time>
        <ele>1613.0</ele>
      </trkpt>
      <trkpt lat="46.713674" lon="11.610629">
        <time>1970-01-01T00:00:00+00:00</time>
        <ele>1607.0</ele>
      </trkpt>
      <trkpt lat="46.713477" lon="11.610751">
        <time>1970-01-01T00:00:00+00:00</time>
        <ele>1600.0</ele>
      </trkpt>
      <trkpt lat="46.713481" lon="11.610975">
        <time>1970-01-01T00:00:00+00:00</time>
        <ele>1596.0</ele>
      </trkpt>
      <trkpt lat="46.713353" lon="11.611234">
        <time>1970-01-01T00:00:00+00:00</time>
        <ele>1590.0</ele>
      </trkpt>
      <trkpt lat="46.713211" lon="11.611259">
        <time>1970-01-01T00:00:00+00:00</time>
        <ele>1587.0</ele>
      </trkpt>
      <trkpt lat="46.713209" lon="11.611328">
        <time>1970-01-01T00:00:00+00:00</time>
        <ele>1586.0</ele>
      </trkpt>
      <trkpt lat="46.713346" lon="11.611398">
        <time>1970-01-01T00:00:00+00:00</time>
        <ele>1588.0</ele>
      </trkpt>
      <trkpt lat="46.713432" lon="11.61163">
        <time>1970-01-01T00:00:00+00:00</time>
        <ele>1582.0</ele>
      </trkpt>
      <trkpt lat="46.713373" lon="11.611737">
        <time>1970-01-01T00:00:00+00:00</time>
        <ele>1577.0</ele>
      </trkpt>
      <trkpt lat="46.713312" lon="11.61178">
        <time>1970-01-01T00:00:00+00:00</time>
        <ele>1575.0</ele>
      </trkpt>
      <trkpt lat="46.71313" lon="11.61178">
        <time>1970-01-01T00:00:00+00:00</time>
        <ele>1572.0</ele>
      </trkpt>
      <trkpt lat="46.712962" lon="11.611722">
        <time>1970-01-01T00:00:00+00:00</time>
        <ele>1570.0</ele>
      </trkpt>
      <trkpt lat="46.712766" lon="11.611763">
        <time>1970-01-01T00:00:00+00:00</time>
        <ele>1565.0</ele>
      </trkpt>
      <trkpt lat="46.712406" lon="11.611709">
        <time>1970-01-01T00:00:00+00:00</time>
        <ele>1560.0</ele>
      </trkpt>
      <trkpt lat="46.712294" lon="11.611964">
        <time>1970-01-01T00:00:00+00:00</time>
        <ele>1551.0</ele>
      </trkpt>
      <trkpt lat="46.712307" lon="11.612215">
        <time>1970-01-01T00:00:00+00:00</time>
        <ele>1543.0</ele>
      </trkpt>
      <trkpt lat="46.712024" lon="11.612512">
        <time>1970-01-01T00:00:00+00:00</time>
        <ele>1525.0</ele>
      </trkpt>
      <trkpt lat="46.71193" lon="11.612496">
        <time>1970-01-01T00:00:00+00:00</time>
        <ele>1521.0</ele>
      </trkpt>
      <trkpt lat="46.711814" lon="11.612372">
        <time>1970-01-01T00:00:00+00:00</time>
        <ele>1517.0</ele>
      </trkpt>
      <trkpt lat="46.711667" lon="11.612277">
        <time>1970-01-01T00:00:00+00:00</time>
        <ele>1514.0</ele>
      </trkpt>
      <trkpt lat="46.711458" lon="11.61206">
        <time>1970-01-01T00:00:00+00:00</time>
        <ele>1514.0</ele>
      </trkpt>
      <trkpt lat="46.711347" lon="11.611891">
        <time>1970-01-01T00:00:00+00:00</time>
        <ele>1515.0</ele>
      </trkpt>
      <trkpt lat="46.711163" lon="11.611728">
        <time>1970-01-01T00:00:00+00:00</time>
        <ele>1513.0</ele>
      </trkpt>
      <trkpt lat="46.71106" lon="11.611553">
        <time>1970-01-01T00:00:00+00:00</time>
        <ele>1515.0</ele>
      </trkpt>
      <trkpt lat="46.710965" lon="11.611326">
        <time>1970-01-01T00:00:00+00:00</time>
        <ele>1516.0</ele>
      </trkpt>
      <trkpt lat="46.710427" lon="11.610571">
        <time>1970-01-01T00:00:00+00:00</time>
        <ele>1498.0</ele>
      </trkpt>
      <trkpt lat="46.71035" lon="11.610585">
        <time>1970-01-01T00:00:00+00:00</time>
        <ele>1494.0</ele>
      </trkpt>
      <trkpt lat="46.710361" lon="11.610736">
        <time>1970-01-01T00:00:00+00:00</time>
        <ele>1493.0</ele>
      </trkpt>
      <trkpt lat="46.710342" lon="11.610797">
        <time>1970-01-01T00:00:00+00:00</time>
        <ele>1491.0</ele>
      </trkpt>
      <trkpt lat="46.710349" lon="11.610956">
        <time>1970-01-01T00:00:00+00:00</time>
        <ele>1490.0</ele>
      </trkpt>
      <trkpt lat="46.71033" lon="11.611092">
        <time>1970-01-01T00:00:00+00:00</time>
        <ele>1485.0</ele>
      </trkpt>
      <trkpt lat="46.710343" lon="11.611298">
        <time>1970-01-01T00:00:00+00:00</time>
        <ele>1482.0</ele>
      </trkpt>
      <trkpt lat="46.710278" lon="11.611688">
        <time>1970-01-01T00:00:00+00:00</time>
        <ele>1468.0</ele>
      </trkpt>
      <trkpt lat="46.710263" lon="11.611991">
        <time>1970-01-01T00:00:00+00:00</time>
        <ele>1458.0</ele>
      </trkpt>
      <trkpt lat="46.710245" lon="11.612083">
        <time>1970-01-01T00:00:00+00:00</time>
        <ele>1455.0</ele>
      </trkpt>
      <trkpt lat="46.710252" lon="11.612197">
        <time>1970-01-01T00:00:00+00:00</time>
        <ele>1453.0</ele>
      </trkpt>
      <trkpt lat="46.710223" lon="11.612634">
        <time>1970-01-01T00:00:00+00:00</time>
        <ele>1446.0</ele>
      </trkpt>
      <trkpt lat="46.710188" lon="11.612809">
        <time>1970-01-01T00:00:00+00:00</time>
        <ele>1444.0</ele>
      </trkpt>
      <trkpt lat="46.710129" lon="11.612933">
        <time>1970-01-01T00:00:00+00:00</time>
        <ele>1441.0</ele>
      </trkpt>
      <trkpt lat="46.710109" lon="11.613401">
        <time>1970-01-01T00:00:00+00:00</time>
        <ele>1438.0</ele>
      </trkpt>
      <trkpt lat="46.710171" lon="11.613793">
        <time>1970-01-01T00:00:00+00:00</time>
        <ele>1436.0</ele>
      </trkpt>
      <trkpt lat="46.710128" lon="11.614034">
        <time>1970-01-01T00:00:00+00:00</time>
        <ele>1433.0</ele>
      </trkpt>
      <trkpt lat="46.710064" lon="11.614191">
        <time>1970-01-01T00:00:00+00:00</time>
        <ele>1430.0</ele>
      </trkpt>
      <trkpt lat="46.710031" lon="11.61439">
        <time>1970-01-01T00:00:00+00:00</time>
        <ele>1427.0</ele>
      </trkpt>
      <trkpt lat="46.709897" lon="11.614873">
        <time>1970-01-01T00:00:00+00:00</time>
        <ele>1418.0</ele>
      </trkpt>
      <trkpt lat="46.709742" lon="11.615139">
        <time>1970-01-01T00:00:00+00:00</time>
        <ele>1410.0</ele>
      </trkpt>
      <trkpt lat="46.709711" lon="11.61526">
        <time>1970-01-01T00:00:00+00:00</time>
        <ele>1409.0</ele>
      </trkpt>
      <trkpt lat="46.709674" lon="11.615303">
        <time>1970-01-01T00:00:00+00:00</time>
        <ele>1408.0</ele>
      </trkpt>
      <trkpt lat="46.708997" lon="11.615921">
        <time>1970-01-01T00:00:00+00:00</time>
        <ele>1391.0</ele>
      </trkpt>
      <trkpt lat="46.708786" lon="11.615726">
        <time>1970-01-01T00:00:00+00:00</time>
        <ele>1382.0</ele>
      </trkpt>
      <trkpt lat="46.708758" lon="11.615829">
        <time>1970-01-01T00:00:00+00:00</time>
        <ele>1381.0</ele>
      </trkpt>
    </trkseg>
  </trk>
</gpx>
